GFSMA_500_spd_273.txt.gz
Wind_Speed
1 2 2 3 3 3 2 3 3 4 4 4 6 6 5 5 6 6 9 11 10 7 11 10 10 10 13 16 18 15 14 13 14 13 12 11 10 13 12 12 13 15 24
2 1 2 4 4 4 4 4 4 6 9 9 9 9 9 7 6 8 10 12 12 8 12 12 12 12 13 15 17 13 14 12 12 14 13 13 11 11 12 13 13 13 21
2 3 2 4 4 4 5 6 8 9 10 12 13 13 13 10 11 12 8 13 13 12 12 12 13 13 13 15 9 14 10 10 10 12 15 14 12 10 12 14 15 21 22
4 4 3 3 5 7 8 8 8 8 11 12 13 15 14 9 7 11 10 9 13 14 15 12 14 12 7 9 11 9 12 12 12 10 16 14 12 12 14 15 15 26 22
8 5 7 5 6 7 7 7 8 9 10 12 13 12 16 10 11 12 10 9 11 12 16 18 13 11 9 10 13 11 12 11 11 9 13 13 11 13 15 18 16 25 24
12 9 9 8 8 8 9 9 10 11 12 12 13 14 12 13 14 12 11 11 10 11 14 18 12 12 12 10 11 11 7 9 9 10 11 15 14 14 17 19 22 25 24
6 9 10 7 7 10 11 12 13 13 15 15 15 16 15 18 16 15 13 10 9 11 11 10 14 11 13 10 9 9 5 9 7 10 11 12 15 17 20 22 22 23 23
7 9 9 9 9 11 13 15 16 17 18 19 18 17 18 21 22 13 14 14 12 15 13 12 12 15 14 13 10 10 8 6 9 9 11 14 15 18 21 25 25 24 24
12 11 11 10 11 15 17 19 21 21 21 22 21 19 16 10 12 13 16 17 14 15 15 16 13 10 18 19 19 14 12 9 8 10 11 14 16 18 22 26 25 25 26
13 14 12 10 11 12 15 13 10 11 12 19 18 23 17 17 17 11 15 18 17 14 17 17 16 13 14 18 19 17 14 11 10 9 12 14 17 19 22 26 26 26 27
20 17 17 12 10 6 4 11 7 11 17 11 11 13 16 13 14 13 12 18 17 18 15 17 16 17 14 12 15 23 20 14 13 12 14 16 20 21 22 26 27 27 27
16 16 6 8 4 9 8 11 15 12 15 15 16 15 11 19 19 18 16 15 19 21 18 20 11 9 8 12 8 18 19 21 19 19 19 19 22 23 24 27 28 29 29
14 4 3 6 9 11 13 11 12 13 13 14 15 16 14 16 18 23 17 17 20 22 22 17 15 16 15 14 15 12 23 26 26 23 22 21 22 25 26 27 28 29 30
6 3 4 8 11 13 11 10 9 10 11 12 14 17 14 13 12 15 21 25 22 21 20 22 21 19 17 15 18 17 16 31 28 26 26 25 24 25 27 28 28 29 29
6 8 8 11 12 14 14 14 13 14 14 15 16 17 17 17 17 15 18 24 32 28 26 25 24 21 21 20 18 19 22 21 32 28 27 27 28 29 29 30 30 30 31
13 13 14 14 16 17 17 17 17 18 19 20 19 20 20 20 19 20 23 20 30 35 25 38 33 26 22 20 19 19 20 24 29 35 33 33 35 31 32 31 31 32 32
19 20 19 18 18 20 20 21 20 20 20 22 23 24 23 23 23 22 22 24 25 19 22 32 32 32 26 22 23 22 23 25 25 26 29 26 32 39 34 34 34 34 34
19 21 23 24 24 24 24 24 24 24 23 23 24 25 26 27 26 25 24 25 23 25 20 31 35 32 27 27 24 29 30 31 31 30 31 28 23 32 40 39 40 37 37
22 23 25 27 28 27 28 27 27 26 25 25 25 26 27 28 29 29 28 28 24 25 27 26 32 29 33 31 27 31 34 34 35 37 37 35 32 32 29 37 44 41 40
29 30 31 30 30 30 30 30 30 27 26 26 25 25 26 27 29 29 30 29 27 29 30 33 33 42 28 30 32 32 35 36 33 38 41 40 40 37 36 35 37 47 47
33 32 33 33 33 33 32 31 31 30 29 28 28 28 28 28 29 31 32 32 33 33 31 32 34 39 40 32 37 39 38 37 34 36 38 41 43 42 40 39 38 38 47
34 35 34 34 34 34 34 34 33 31 31 30 29 29 30 31 32 32 33 34 36 38 39 39 36 38 40 38 38 38 40 41 41 42 38 40 43 45 44 43 42 41 39
36 35 35 35 34 36 35 34 32 31 31 32 32 32 33 33 34 35 36 38 39 40 41 42 45 45 43 44 43 44 43 43 43 42 44 39 41 46 49 47 45 45 43
36 35 36 35 35 36 36 35 34 35 36 37 38 39 39 40 40 40 41 42 42 44 44 45 46 48 51 49 48 47 46 46 46 45 47 41 45 42 46 51 49 48 47
36 36 35 34 33 33 35 36 38 39 40 41 42 43 44 44 45 45 45 45 46 48 49 48 49 49 50 52 53 52 50 49 47 48 48 48 45 47 46 45 54 51 49
35 34 32 32 35 37 37 38 40 42 44 46 47 47 48 49 50 52 52 53 52 52 52 53 54 54 53 53 53 53 53 53 51 50 49 51 50 48 47 47 47 48 50

GFSMA_500_spd_276.txt.gz
Wind_Speed
6 4 6 6 5 5 5 3 3 3 4 5 7 8 9 11 9 9 9 9 10 9 10 11 10 10 12 14 17 13 15 15 14 13 11 10 9 9 9 11 13 19 21
7 5 4 4 5 5 6 6 6 7 7 8 8 10 13 14 12 8 10 10 12 12 13 12 9 12 16 16 16 13 10 19 16 15 14 13 10 10 12 13 13 13 21
3 5 5 5 5 6 8 9 10 10 11 11 11 12 14 20 15 16 9 9 14 16 14 14 13 13 16 17 17 9 9 15 16 15 15 15 13 11 11 12 13 12 21
6 8 8 8 7 7 8 9 10 11 12 12 12 12 14 16 10 10 12 10 18 13 15 16 14 12 9 9 11 12 11 16 11 13 16 17 14 12 12 13 14 15 20
10 11 11 10 9 9 8 9 10 11 12 13 14 13 16 17 12 14 15 13 12 14 13 14 16 14 10 11 12 10 11 10 12 14 16 19 16 14 14 15 17 20 24
12 17 15 14 13 13 11 11 11 13 13 13 15 16 17 16 13 14 16 15 13 18 13 12 12 14 12 10 10 8 13 11 15 14 15 18 18 18 18 19 21 20 26
13 11 16 14 15 13 13 12 13 13 13 15 17 18 18 16 17 19 21 16 13 13 11 13 10 10 15 12 9 7 8 5 15 13 14 19 18 20 21 22 24 22 25
17 19 17 18 16 12 14 15 15 18 18 16 18 22 20 19 22 21 24 19 17 15 14 16 13 11 13 16 11 10 7 6 11 9 13 16 17 19 21 23 25 23 27
20 21 21 20 17 17 16 16 16 13 16 19 18 23 23 22 14 16 11 15 15 17 16 15 14 16 14 17 15 13 8 7 8 11 12 14 17 17 20 23 25 25 27
27 24 23 22 18 17 16 12 6 8 11 15 14 12 15 21 24 22 19 12 16 16 16 15 16 16 15 15 18 17 16 12 10 10 12 13 15 18 19 22 26 26 25
34 24 28 24 25 16 5 9 9 14 13 15 11 5 16 16 22 15 18 12 14 14 18 18 15 16 15 15 14 20 20 13 13 13 13 14 16 17 20 23 27 27 26
15 23 12 5 3 5 10 11 14 15 16 14 13 15 16 17 10 16 20 16 16 17 21 22 17 15 14 12 17 15 22 26 21 17 16 16 17 18 21 25 28 30 29
24 7 4 5 7 7 10 10 12 13 13 12 14 14 15 16 18 17 19 21 15 19 22 20 19 20 17 15 14 16 21 26 23 20 20 18 19 20 23 25 28 31 32
11 5 4 9 11 9 10 13 11 13 15 16 16 15 17 16 17 18 15 16 17 23 24 23 24 22 21 20 20 22 19 26 26 27 27 24 23 24 24 26 29 32 34
11 9 9 12 14 15 15 17 19 21 21 22 22 21 21 21 21 20 19 18 18 22 27 27 26 25 24 19 20 22 22 22 25 31 33 29 26 26 27 28 31 33 34
11 12 12 12 12 14 15 17 20 21 23 24 26 25 26 24 26 26 25 23 23 22 25 30 30 31 30 30 28 26 24 24 23 28 33 35 32 31 31 31 33 33 34
12 13 14 15 16 17 19 21 23 24 24 24 26 28 29 30 27 27 28 28 27 26 27 25 27 27 37 36 32 27 26 24 23 25 31 37 36 36 36 36 36 36 36
14 15 17 19 21 22 24 25 25 26 27 27 29 29 30 32 33 33 33 31 30 30 29 22 33 24 22 24 36 27 28 29 29 29 29 28 31 39 42 43 44 39 38
19 21 23 24 25 25 26 28 28 30 31 30 29 31 32 33 34 34 34 34 33 32 30 30 27 31 37 40 42 36 36 32 31 35 33 35 35 34 36 32 40 42 40
24 24 25 27 28 29 29 28 29 29 30 31 31 31 31 31 32 34 35 35 35 34 33 32 33 37 38 30 27 37 39 43 38 31 36 36 38 39 38 36 35 36 42
26 27 29 30 30 29 30 31 30 29 30 30 30 29 30 31 32 34 35 37 37 36 36 37 37 36 39 36 35 37 38 32 33 36 37 36 38 38 40 42 41 40 38
27 30 31 30 30 32 32 30 31 30 30 30 30 31 31 32 33 34 35 36 38 40 41 42 43 42 41 40 41 41 39 39 37 42 38 38 40 37 36 38 45 45 44
32 33 35 32 33 33 31 31 30 29 29 30 32 33 35 35 38 39 40 41 42 42 43 44 45 47 46 47 45 46 44 42 41 42 45 41 41 41 42 42 39 45 47
38 34 34 34 35 33 30 29 30 30 31 33 35 37 38 40 41 43 45 47 47 47 47 48 49 49 50 50 50 51 50 47 45 44 47 46 46 45 45 42 42 39 45
37 35 33 35 37 33 32 31 31 34 37 40 41 43 45 47 48 49 50 50 50 51 52 52 53 54 53 55 55 54 53 53 51 49 48 49 49 48 48 46 44 45 44
33 33 34 35 33 34 35 37 39 43 45 46 48 51 53 55 55 55 55 55 55 55 56 59 60 59 59 60 58 58 58 57 56 54 52 50 51 51 49 50 49 48 48

GFSMA_500_spd_279.txt.gz
Wind_Speed
9 8 8 9 10 10 10 8 7 7 7 9 10 12 13 14 15 12 14 15 24 3 9 10 14 13 12 11 14 16 14 15 15 14 12 10 10 10 11 12 16 21 19
10 9 8 9 10 10 11 11 10 10 11 11 13 15 16 16 18 17 18 21 18 15 8 15 16 16 10 12 14 15 14 11 17 18 16 14 12 12 13 14 15 19 20
8 9 9 9 10 11 13 13 13 13 13 14 14 15 17 19 19 17 15 17 14 11 20 20 12 14 15 10 12 12 14 13 18 19 19 18 16 14 14 14 15 16 22
11 14 13 11 12 10 12 14 14 15 14 14 15 16 15 17 19 19 12 11 12 14 20 16 23 9 13 11 8 9 10 16 17 20 20 20 19 18 16 17 16 16 17
21 26 21 16 14 13 11 14 15 16 15 15 15 16 15 18 20 17 14 16 12 13 13 16 16 17 18 16 11 7 6 14 17 17 17 20 21 20 19 19 18 18 17
12 9 10 19 18 12 14 17 19 19 18 18 15 16 17 20 19 15 16 16 14 16 19 14 7 14 16 20 10 6 4 11 10 18 14 19 21 21 21 22 22 21 23
20 17 15 15 15 12 15 17 20 22 23 23 19 17 18 19 21 22 20 22 21 14 16 17 24 4 14 17 13 6 5 2 11 18 16 17 20 22 23 23 24 24 27
22 17 18 16 17 16 16 18 20 22 26 23 23 22 24 24 24 22 20 22 20 17 19 14 8 14 17 10 23 8 2 4 10 15 14 15 19 21 21 22 23 25 29
27 29 20 17 14 15 17 19 22 20 12 12 16 18 17 19 23 25 21 20 12 15 19 14 13 18 19 21 19 19 7 7 6 13 13 14 16 21 21 22 24 26 26
27 31 29 19 16 17 15 18 15 12 16 20 16 16 17 18 16 23 23 20 18 16 16 16 14 13 13 17 17 15 13 12 12 12 14 13 15 18 21 23 25 28 26
27 18 18 13 20 23 21 10 16 19 19 20 20 18 19 27 21 16 17 22 19 21 17 14 17 18 15 17 15 17 18 21 16 16 15 17 17 19 21 24 26 28 28
27 12 8 7 5 4 4 9 16 17 18 16 18 18 19 21 22 23 17 15 17 16 17 15 18 16 13 17 14 19 27 21 19 18 17 17 19 20 22 24 26 29 32
18 9 7 4 4 6 11 19 16 18 17 17 17 17 18 18 19 21 20 19 21 19 14 19 17 15 15 14 17 19 23 17 21 25 22 20 19 21 21 23 26 29 32
10 9 9 8 7 8 11 13 16 18 19 20 22 22 22 23 22 19 22 23 21 19 17 21 23 20 22 20 24 23 22 21 23 23 26 25 24 23 24 26 27 28 31
13 12 10 10 12 14 15 16 16 17 20 20 22 25 24 24 24 24 24 24 24 22 23 23 21 21 25 26 29 29 26 24 24 26 29 30 28 27 26 25 27 28 30
15 13 13 13 13 14 16 18 18 19 21 23 24 27 26 28 28 27 27 27 25 26 25 26 27 27 29 24 27 22 21 25 28 27 31 36 33 33 31 30 29 30 32
15 15 15 15 16 17 20 23 26 26 26 27 27 28 29 30 31 31 32 31 32 32 30 29 30 30 29 28 25 29 31 33 32 30 31 28 37 36 34 33 33 32 32
18 20 21 23 25 26 27 29 30 30 30 30 30 29 31 32 33 35 35 34 35 36 34 32 29 30 30 30 30 27 30 31 40 30 32 31 28 46 45 36 36 35 36
23 23 24 24 24 26 28 29 30 29 29 31 32 32 32 32 34 33 35 36 36 36 37 35 34 33 32 33 29 32 36 38 38 40 28 26 25 29 28 28 32 39 41
25 26 27 27 29 30 30 29 30 35 35 32 30 30 33 34 34 34 34 37 37 37 38 38 37 36 35 36 36 37 34 36 32 38 42 38 37 32 32 34 35 37 36
25 27 29 31 34 33 31 31 32 33 32 33 32 31 32 31 32 33 33 35 37 38 39 40 41 41 41 38 40 39 38 33 36 38 45 37 35 34 31 37 36 40 40
27 31 33 33 35 36 37 37 35 32 31 30 30 31 31 31 34 35 36 36 38 39 41 42 42 43 44 43 44 43 43 39 37 38 44 36 35 32 39 34 37 38 41
31 33 32 34 37 40 36 36 34 30 29 31 32 33 37 35 37 40 41 42 43 44 46 47 48 48 48 49 47 46 47 46 43 41 42 37 40 39 39 38 41 38 38
32 32 35 38 38 36 37 36 33 32 30 34 37 40 43 45 43 45 46 48 49 51 52 52 53 52 52 53 52 52 50 50 48 47 48 43 44 43 44 43 42 42 41
34 34 37 38 39 36 33 35 36 36 36 38 41 44 47 49 49 51 53 55 56 57 58 58 57 57 58 57 56 55 55 54 53 52 51 50 48 46 47 46 45 45 45
35 37 38 37 34 33 36 35 38 40 42 43 46 48 48 51 57 59 59 59 59 59 58 58 59 58 56 57 60 60 61 59 57 55 57 56 52 51 49 49 51 49 47

GFSMA_500_spd_285.txt.gz
Wind_Speed
10 6 7 9 10 9 12 13 13 13 10 9 11 14 13 14 16 16 11 15 17 19 21 19 19 15 13 9 11 11 12 14 14 12 10 11 14 12 19 22 23 21 19
8 8 10 11 10 8 8 12 14 16 14 12 14 15 16 14 16 15 14 12 14 17 17 14 17 24 18 11 8 11 12 14 17 16 14 13 13 15 17 20 21 21 20
9 11 13 14 15 15 14 14 14 15 16 15 16 15 15 17 16 17 17 15 13 12 14 16 14 14 20 20 11 12 12 14 16 20 20 18 16 15 17 19 21 24 22
10 16 14 16 18 15 11 14 14 14 14 15 17 19 17 17 14 16 20 15 11 10 14 15 15 11 14 13 9 15 14 16 17 19 24 22 20 19 18 19 21 23 26
9 13 14 13 12 9 11 11 7 12 14 15 15 15 14 16 19 20 20 22 14 14 14 16 14 14 15 13 17 14 17 17 18 18 22 25 23 21 20 21 21 23 25
13 16 18 15 11 5 7 7 8 10 11 16 16 17 16 14 17 18 21 25 21 16 16 17 14 14 12 16 13 19 19 21 21 23 21 23 25 24 23 23 23 23 24
15 17 20 19 15 11 6 6 8 10 12 15 16 14 12 14 14 17 19 19 20 19 14 20 16 16 18 18 18 20 22 21 21 24 22 20 22 24 23 24 24 25 25
20 23 19 18 18 13 9 7 7 12 12 15 8 6 10 12 14 16 20 20 17 17 15 17 15 13 20 16 10 13 21 21 19 22 25 22 20 22 24 26 25 26 27
19 26 20 18 15 14 9 9 6 13 12 17 14 10 10 11 17 17 18 17 15 13 17 15 16 16 21 15 18 21 18 21 19 22 25 23 26 22 23 26 27 27 27
22 26 26 20 14 7 11 12 12 13 14 16 19 16 12 15 13 19 23 23 17 20 16 20 21 18 20 21 10 13 26 19 22 19 22 24 24 23 23 25 29 28 29
20 23 21 21 20 18 17 15 15 17 16 19 16 14 14 15 13 13 17 18 25 22 23 25 13 16 17 18 15 20 25 9 23 20 20 22 22 23 25 26 27 29 30
18 19 20 18 17 16 16 15 15 17 16 16 15 14 15 18 19 17 17 17 17 15 22 26 26 14 14 15 16 24 17 12 13 16 19 21 20 22 23 25 26 28 29
18 16 17 16 16 15 15 15 15 15 15 17 18 21 22 21 22 21 20 20 20 18 17 17 25 29 25 16 13 11 12 11 13 15 21 20 20 23 24 25 26 27 29
16 16 17 16 16 16 17 17 17 18 19 21 23 24 25 26 26 26 25 23 22 21 21 21 18 15 22 23 20 25 9 21 18 17 20 23 23 24 25 26 27 27 28
12 14 15 16 16 17 18 18 18 19 20 21 23 24 27 29 30 30 29 26 25 25 25 23 23 21 22 21 21 23 21 22 17 19 25 30 25 28 27 29 29 30 30
12 13 16 18 17 16 15 17 16 19 20 23 27 28 27 27 28 29 28 29 28 28 27 25 25 24 23 25 25 22 21 20 20 23 22 32 29 34 33 32 32 31 31
14 15 15 18 18 18 18 17 19 23 27 28 29 29 30 31 29 27 28 28 28 27 27 28 26 25 24 25 25 23 23 22 24 21 18 26 31 35 34 35 35 34 34
17 17 18 19 17 19 23 23 23 24 27 31 31 29 32 32 29 26 26 26 28 28 27 28 28 27 25 22 25 25 25 24 24 22 22 21 28 26 35 35 38 39 38
19 20 19 20 22 24 25 26 24 26 28 31 31 30 30 29 28 26 25 24 24 24 24 25 26 26 26 25 25 26 26 25 24 24 24 25 25 26 29 29 41 46 43
22 22 24 24 27 27 27 24 27 28 31 30 31 30 27 26 28 28 27 27 28 28 28 29 29 29 27 27 28 28 28 28 27 29 30 34 35 34 35 36 37 35 40
27 27 27 28 29 28 28 27 28 31 33 33 32 30 26 27 31 31 32 32 33 35 35 35 35 35 35 34 33 32 32 33 33 35 35 36 37 39 39 39 37 38 38
30 31 30 29 33 30 30 30 29 31 33 35 34 32 29 29 33 37 38 39 39 38 40 40 39 40 40 40 40 39 38 38 37 38 38 40 42 41 41 42 41 38 40
29 32 30 27 33 32 32 32 33 33 33 34 35 37 34 33 35 39 43 45 45 46 45 44 44 45 45 45 44 45 45 45 45 45 44 43 46 45 45 45 43 40 42
29 29 29 28 30 33 33 34 35 36 38 36 37 39 41 42 44 46 48 50 49 48 48 48 49 51 50 50 50 50 50 50 50 51 52 48 51 48 48 47 47 45 41
31 29 30 30 31 33 34 35 36 39 42 41 40 41 44 45 47 49 50 52 53 55 55 55 52 49 50 52 53 52 52 52 51 52 53 54 55 54 52 51 51 50 47
37 34 34 32 34 36 36 36 39 40 43 43 45 48 51 54 57 58 57 56 54 52 50 50 49 48 41 37 37 38 39 39 40 41 44 48 50 57 58 55 54 55 53

GFSMA_500_spd_291.txt.gz
Wind_Speed
7 8 7 8 8 7 7 6 8 9 9 8 9 9 12 12 12 11 12 10 12 8 9 7 8 11 9 12 10 6 7 10 10 7 5 7 16 22 21 21 20 22 26
8 8 8 11 11 10 13 10 11 12 11 9 8 8 9 14 15 14 15 17 11 8 3 6 5 12 15 9 14 9 8 9 12 13 10 10 20 22 19 22 21 21 24
8 9 13 13 12 10 17 16 15 12 12 10 10 11 10 12 13 14 14 13 14 15 11 7 8 6 17 12 7 15 10 9 13 14 16 14 19 22 22 22 23 22 22
13 13 13 16 14 16 16 12 13 15 13 10 11 12 12 15 16 12 13 14 15 12 8 16 24 13 17 15 14 7 16 13 12 15 18 19 18 22 22 24 25 25 25
13 15 16 17 14 15 15 8 11 11 9 10 11 12 13 11 11 10 9 12 13 14 14 16 10 21 18 15 18 16 13 18 13 16 19 22 23 23 24 23 26 28 26
15 17 19 18 17 16 15 12 10 8 11 10 14 15 14 11 4 5 7 9 12 12 13 14 13 13 15 13 18 15 18 18 16 18 20 22 26 26 26 25 27 28 29
13 16 17 18 11 15 13 9 8 10 12 12 12 11 5 6 5 9 12 14 15 8 12 12 14 17 17 16 17 16 16 22 20 20 21 24 26 28 29 29 28 31 30
11 11 16 18 11 9 12 13 10 15 10 3 9 7 5 3 8 9 5 8 10 12 11 8 12 15 16 16 21 18 17 15 19 24 23 25 26 28 31 32 32 32 32
11 13 13 13 17 15 14 11 5 6 7 9 6 8 7 5 4 6 7 7 8 8 8 8 12 15 17 17 16 16 19 22 18 21 26 27 28 29 30 33 33 34 33
10 12 12 12 12 14 12 11 10 8 6 3 3 4 5 8 10 9 10 12 12 13 13 12 12 14 15 16 19 20 22 28 26 21 26 29 30 33 33 33 35 35 35
11 12 12 13 13 14 12 9 9 7 7 5 4 5 7 9 11 14 16 15 14 14 14 15 19 18 18 15 14 20 21 16 18 27 30 33 33 33 37 35 34 36 37
10 9 9 10 9 10 10 11 12 12 11 10 10 11 13 15 17 18 20 22 21 19 18 17 17 20 18 15 12 10 16 17 22 20 28 35 35 33 38 39 36 35 38
8 8 9 10 10 10 12 15 13 12 13 14 14 13 14 17 20 23 25 26 26 23 21 18 20 21 21 18 19 16 13 16 16 23 35 39 38 37 37 38 38 36 37
8 9 12 13 14 14 13 15 16 15 14 15 14 16 19 21 23 24 24 26 26 25 26 25 21 21 24 24 21 21 22 19 19 25 24 29 27 35 35 37 39 40 39
11 13 15 17 17 18 17 16 17 17 17 18 21 23 25 25 25 25 26 26 26 22 22 25 25 23 22 24 25 24 24 24 22 24 28 19 32 34 37 38 39 40 40
15 16 18 19 19 19 19 18 20 24 23 23 23 26 27 27 25 26 26 26 27 23 21 22 24 25 24 23 24 25 25 24 23 25 26 28 15 21 37 37 40 41 40
17 19 19 20 21 21 22 24 25 27 28 28 27 28 29 30 29 28 28 29 28 26 26 24 23 24 24 25 23 25 25 26 24 23 19 26 23 25 24 42 45 42 39
17 19 20 21 22 23 23 25 27 29 29 29 30 34 34 33 32 32 30 29 31 30 29 28 27 27 26 26 26 25 24 26 28 28 30 29 30 32 26 39 51 34 47
19 21 22 24 26 27 28 29 30 30 31 32 32 34 34 37 36 37 35 34 33 34 34 34 33 32 31 31 30 30 30 27 27 30 31 31 32 30 34 35 43 35 34
23 25 25 26 27 29 31 31 31 30 32 34 35 37 38 38 38 38 38 39 38 38 38 37 37 36 36 36 36 35 36 36 33 31 31 34 35 35 42 32 49 43 41
27 27 27 28 31 32 31 30 32 33 33 33 35 37 39 40 40 39 39 40 40 40 40 41 42 41 41 42 42 43 41 41 40 38 36 34 35 40 43 43 42 47 40
29 32 30 31 33 35 36 34 33 33 35 34 35 38 39 40 41 41 42 43 42 43 44 44 44 45 46 47 48 46 46 44 45 44 40 40 40 40 44 47 47 45 40
33 32 32 36 32 32 31 36 38 36 37 37 39 40 41 40 41 44 45 46 48 47 47 48 49 49 51 52 50 50 50 48 48 49 48 46 45 46 48 47 47 46 47
34 32 35 39 38 33 36 39 36 33 35 39 40 38 39 40 42 44 46 48 49 50 50 48 43 39 41 44 48 52 52 51 52 53 53 51 51 49 50 51 50 50 51
35 33 40 40 45 39 36 38 40 41 40 40 41 40 41 44 45 47 49 48 43 36 30 32 32 31 31 31 31 35 42 46 50 54 56 55 55 54 54 54 55 54 54
39 38 44 38 35 36 40 46 45 41 37 38 41 44 47 49 51 50 45 36 30 32 34 33 30 31 31 31 30 28 30 33 39 43 52 55 56 58 57 57 59 60 60